Powrót do katalogu

FENGYUN 1C DEB

AktywnyPO
NORAD 30912·DEBRIS·🇨🇳 China

Wystrzelony May 10, 1999 z Taiyuan Satellite Launch Center

Loading…

Następne Przeloty (najbliższe 24 godziny)

TLE

ŚwieżeSource: Space-Track

Epoka: Sep 14, 2026, 15:28 UTC

1 30912U 99025AZA 26257.64488206  .00010456  00000-0  90517-3 0  9991
2 30912  98.9676 143.0246 0049211 293.7247  65.8813 14.96441323 35199

Śledź FENGYUN 1C DEB w czasie rzeczywistym z AllMySat

Download on the App Store